Location: Unspecified
(0.0000°N, 0.0000°E)
Time: 22:44:06
(UTC+00:00)

Vanguard 2 - Pass Details

Date: 01 October 2020
Orbit: 554 x 2937 km, 32.9° (Epoch: 27 October)

Event Time Altitude Azimuth Distance (km) Brightness Sun altitude
Rises 20:33:47 0° 219° (SW) 6,272 12.7 -41.0°
Reaches altitude 10° 20:38:56 10° 207° (SSW) 5,510 12.1 -42.3°
Enters shadow 20:51:56 27° 159° (SSE) 4,470 11.1 -45.5°
Maximum altitude 20:52:34 27° 156° (SSE) 4,466 - -45.7°
Drops below altitude 10° 21:05:52 10° 104° (ESE) 5,434 - -49.0°
Sets 21:10:47 0° 93° (E) 6,181 - -50.2°
